Yuma, AZ

11:38 AM MST on February 07, 2016 (GMT -0700)
Yuma Marine Corps Air Station

Weather History for KNYL - January, 2013

Change the Weather History Date:

Tuesday, January 15, 2013

  Actual Average Record
Temperature  
Mean Temperature 45 °F 58 °F  
Max Temperature 53 °F 70 °F 81 °F (1943)
Min Temperature 37 °F 48 °F 29 °F (1888)
Degree Days  
Heating Degree Days 20 7  
Month to date heating degree days 203 109  
Since 1 July heating degree days 440 413  
Cooling Degree Days 0 0  
Month to date cooling degree days 0 0  
Year to date cooling degree days 0 0  
Moisture  
Dew Point 3 °F    
Average Humidity 19    
Maximum Humidity 27    
Minimum Humidity 11    
Precipitation  
Precipitation 0.00 in 0.01 in 0.26 in (1935)
Month to date precipitation 0.00 0.21  
Year to date precipitation 0.00 0.21  
Sea Level Pressure  
Sea Level Pressure 30.43 in    
Wind  
Wind Speed 10 mph (North)    
Max Wind Speed 21 mph    
Max Gust Speed 26 mph    
Visibility 10 miles    
Events      
T = Trace of Precipitation, MM = Missing Value Source: NWS Daily Summary

Daily Weather History Graph

Daily Weather History Graph

Search for Another Location

Airport or City:

Trip Planner

Search our weather history database for the weather conditions in past years. The results will help you decide how hot, cold, wet, or windy it might be!

Date:

Astronomy

Jan. 15, 2013 Rise Set
Actual Time 7:40 AM MST 5:55 PM MST
Civil Twilight 7:13 AM MST 6:22 PM MST
Nautical Twilight 6:43 AM MST 6:52 PM MST
Astronomical Twilight 6:14 AM MST 7:22 PM MST
Moon 10:05 AM MST (1/15) 10:30 PM MST (1/15)
Length of Visible Light 11h 08m
Length of Day
10h 15m
Waxing Crescent, 20% of the Moon is Illuminated
Jan 15
Waxing Crescent
Jan 18
First Quarter
Jan 26
Full
Feb 3
Last Quarter
Feb 10
New

Hourly Weather History & Observations

Time (MST) Temp. Windchill Dew Point Humidity Pressure Visibility Wind Dir Wind Speed Gust Speed Precip Events Conditions
12:55 AM 39.9 °F 32.5 °F -2.0 °F 17% 30.36 in 10.0 mi NNE 12.7 mph 20.7 mph N/A   Clear
1:55 AM 39.0 °F 31.8 °F -0.9 °F 19% 30.37 in 10.0 mi NNE 11.5 mph - N/A   Clear
2:55 AM 39.0 °F 31.8 °F 1.0 °F 20% 30.40 in 10.0 mi North 11.5 mph - N/A   Clear
3:55 AM 39.0 °F 31.0 °F 1.0 °F 20% 30.41 in 10.0 mi North 13.8 mph - N/A   Clear
4:55 AM 37.9 °F 32.7 °F 1.0 °F 21% 30.41 in 10.0 mi NNE 6.9 mph - N/A   Clear
5:55 AM 37.0 °F 31.0 °F 1.0 °F 22% 30.42 in 10.0 mi North 8.1 mph - N/A   Clear
6:55 AM 37.0 °F 28.9 °F 1.0 °F 22% 30.44 in 10.0 mi North 12.7 mph - N/A   Clear
7:55 AM 37.0 °F 30.4 °F 1.0 °F 22% 30.46 in 10.0 mi NNW 9.2 mph - N/A   Clear
8:55 AM 39.9 °F 36.7 °F 1.9 °F 20% 30.49 in 10.0 mi WNW 4.6 mph - N/A   Clear
9:55 AM 43.0 °F 35.1 °F -0.9 °F 16% 30.52 in 10.0 mi NNE 17.3 mph - N/A   Partly Cloudy
10:55 AM 46.0 °F 39.3 °F -2.0 °F 14% 30.49 in 10.0 mi NE 16.1 mph 23.0 mph N/A   Partly Cloudy
11:55 AM 48.0 °F - -2.0 °F 13% 30.48 in 9.0 mi North 16.1 mph - N/A   Partly Cloudy
12:55 PM 50.0 °F - -2.9 °F 11% 30.44 in 10.0 mi North 10.4 mph 23.0 mph N/A   Partly Cloudy
1:55 PM 51.1 °F - -2.9 °F 11% 30.41 in 10.0 mi North 9.2 mph 17.3 mph N/A   Partly Cloudy
2:55 PM 52.0 °F - -0.9 °F 11% 30.40 in 10.0 mi North 12.7 mph - N/A   Partly Cloudy
3:55 PM 53.1 °F - 3.9 °F 14% 30.40 in 10.0 mi North 12.7 mph - N/A   Partly Cloudy
4:55 PM 53.1 °F - 3.9 °F 14% 30.41 in 10.0 mi North 9.2 mph - N/A   Partly Cloudy
5:55 PM 51.1 °F - 7.0 °F 17% 30.40 in 10.0 mi North 3.5 mph - N/A   Partly Cloudy
6:55 PM 48.0 °F - 10.9 °F 22% 30.41 in 10.0 mi NNW 3.5 mph - N/A   Clear
7:55 PM 45.0 °F 41.2 °F 12.9 °F 27% 30.43 in 10.0 mi NW 6.9 mph - N/A   Clear
8:55 PM 46.9 °F - 10.9 °F 23% 30.42 in 10.0 mi North 9.2 mph - N/A   Clear
9:55 PM 44.1 °F 40.1 °F 12.9 °F 28% 30.43 in 10.0 mi WNW 6.9 mph - N/A   Clear
10:55 PM 42.1 °F 37.1 °F 10.9 °F 28% 30.43 in 10.0 mi West 8.1 mph - N/A   Clear
11:55 PM 43.0 °F 39.5 °F 10.9 °F 27% 30.42 in 10.0 mi NNW 5.8 mph - N/A   Clear